[[{"header":{"parameterUnit":"m.s-1","parameterCategory":2,"la1":30.2991,"la2":30.254,"lo1":-89.0895,"lo2":-89.0444,"dy":0.0017,"dx":0.0017,"nx":28,"ny":28,"refTime":"2024-05-27T03:00:00:Z","depth":"0","parameterNumber":2,"parameterNumberName":"U-component_of_CURRENTS"},"data":[0,0,0,0,0,0,0,0,0,0,0,0,0,0,0,0,0,0,0,0,0,0,0,0,0,0,0,0,0,0,0,0,0,0,0,0,0,0,0,0,0,0,0,0,0,0,0,0,0,0,0,0,0,0,0,0,0,0,-0.2623,-0.2622,0,-0.2597,-0.2597,-0.2597,-0.2454,-0.245,-0.2447,-0.2444,-0.2307,-0.2306,-0.2306,0,0,0,0,0,0,0,0,0,0,0,0,0,-0.2582,-0.2584,-0.2623,-0.2622,-0.2622,-0.2597,-0.2597,-0.2597,-0.2455,-0.245,-0.2446,-0.2442,-0.2307,-0.2306,-0.2306,0,0,0,0,0,0,0,0,0,0,0,0,0,-0.2584,-0.2584,-0.2623,-0.2547,-0.254,-0.2597,-0.2597,-0.2597,-0.2455,-0.245,-0.2445,-0.244,-0.2307,-0.2306,-0.2306,-0.2408,0,0,-0.2304,-0.2304,0,0,0,0,0,0,0,0,-0.2584,-0.2585,-0.2559,-0.2553,-0.2545,-0.2522,-0.2532,-0.2528,-0.2457,-0.2489,-0.2443,-0.2437,-0.2372,-0.2366,-0.2376,-0.2402,-0.2396,-0.2304,-0.2304,-0.2304,-0.2303,0,0,0,0,0,0,0,-0.2584,-0.2586,-0.2614,-0.2559,-0.255,-0.2526,-0.252,-0.2532,-0.2459,-0.2486,-0.2475,-0.2472,-0.2366,-0.2377,-0.2371,-0.2394,-0.2304,-0.2304,-0.2303,-0.2303,-0.2402,-0.2405,0,0,0,0,0,0,-0.259,-0.2587,-0.2614,-0.2613,-0.255,-0.2531,-0.2524,-0.2536,-0.2461,-0.2445,-0.2477,-0.2466,-0.238,-0.2372,-0.2365,-0.24,-0.2304,-0.2303,-0.2303,-0.2399,-0.2402,-0.2406,0,0,0,0,0,0,-0.2589,-0.2593,-0.2615,-0.2597,-0.2597,-0.2537,-0.2551,-0.2538,-0.2521,-0.2455,-0.2436,-0.2468,-0.2376,-0.2366,-0.2368,-0.2396,-0.2303,-0.2302,-0.2395,-0.24,-0.2404,-0.2521,0,0,0,0,0,0,-0.2589,-0.2594,-0.2607,-0.2598,-0.2599,-0.2651,-0.2556,-0.2541,-0.2528,-0.2513,-0.2444,-0.2426,-0.2371,-0.2369,-0.2367,-0.2393,-0.2302,-0.2392,-0.2397,-0.2403,-0.2514,-0.2529,-0.2543,0,0,0,0,0,-0.2588,-0.2636,-0.2609,-0.2612,-0.2619,-0.2653,-0.2653,-0.2591,-0.2533,-0.2551,-0.2497,-0.2427,-0.2401,-0.2372,-0.2369,-0.2395,-0.2389,-0.2396,-0.2402,-0.2507,-0.2526,-0.2542,0,0,0,0,0,0,-0.2639,-0.2627,-0.2595,-0.2639,-0.2642,-0.2628,-0.2641,-0.2605,-0.2584,-0.2554,-0.2477,-0.246,-0.2471,-0.2437,-0.2406,-0.2443,-0.2381,-0.2387,-0.2462,-0.248,-0.2494,-0.2473,-0.2302,0,0,0,0,0,-0.2659,-0.2674,-0.2669,-0.2702,-0.2707,-0.2677,-0.268,-0.2646,-0.2625,-0.2607,-0.2561,-0.2519,-0.2511,-0.2492,-0.2482,-0.2517,-0.247,-0.2531,-0.2545,-0.2558,-0.2542,-0.254,-0.2552,-0.2427,-0.2427,-0.2427,0,0,-0.2686,-0.2681,-0.2688,-0.2711,-0.2702,-0.273,-0.2665,-0.2682,-0.2691,-0.2603,-0.2602,-0.2576,-0.2535,-0.2559,-0.256,-0.2521,-0.257,-0.2566,-0.2576,-0.2553,-0.2548,-0.256,-0.257,-0.2432,-0.2431,-0.243,0,0,-0.2745,-0.2747,-0.2772,-0.2787,-0.2785,-0.2776,-0.2783,-0.2775,-0.2753,-0.2778,-0.2706,-0.2695,-0.2691,-0.2656,-0.264,-0.2739,-0.2654,-0.2742,-0.2785,-0.2786,-0.2795,-0.2802,-0.2756,-0.2759,-0.2739,-0.274,-0.274,0,-0.2768,-0.2799,-0.2791,-0.2823,-0.2828,-0.2798,-0.2829,-0.2838,-0.2826,-0.2816,-0.2784,-0.2763,-0.2732,-0.2736,-0.2763,-0.2766,-0.2739,-0.2719,-0.2802,-0.2808,-0.2814,-0.2764,-0.2765,-0.2746,-0.2745,-0.2745,-0.2744,0,-0.2839,-0.2863,-0.289,-0.2901,-0.2923,-0.2953,-0.2954,-0.2967,-0.2938,-0.2923,-0.2926,-0.2897,-0.2863,-0.2875,-0.2847,-0.2876,-0.2835,-0.2827,-0.275,-0.2833,-0.2776,-0.2775,-0.2755,-0.2753,-0.2751,-0.2749,0,0,-0.2862,-0.292,-0.2923,-0.2926,-0.2958,-0.2974,-0.3018,-0.303,-0.3023,-0.303,-0.3019,-0.3027,-0.2985,-0.2966,-0.2932,-0.2935,-0.2961,-0.2904,-0.2901,-0.2842,-0.2933,-0.2739,-0.2718,-0.2974,-0.2975,-0.2976,-0.2875,0,-0.2898,-0.2959,-0.2984,-0.3028,-0.3049,-0.3054,-0.3086,-0.3096,-0.309,-0.3088,-0.3063,-0.305,-0.3028,-0.3007,-0.3015,-0.2982,-0.2965,-0.2986,-0.2873,-0.2868,-0.2674,-0.2712,-0.2596,-0.2483,-0.2874,-0.2873,-0.2873,0,-0.2931,-0.2962,-0.3015,-0.3047,-0.3057,-0.3085,-0.3092,-0.3121,-0.3131,-0.3123,-0.3113,-0.309,-0.309,-0.3062,-0.3029,-0.3048,-0.2993,-0.2962,-0.2957,-0.2725,-0.2671,-0.2466,-0.2465,-0.2471,-0.287,-0.287,-0.287,0,-0.2895,-0.297,-0.2998,-0.3016,-0.3068,-0.308,-0.3098,-0.3116,-0.3113,-0.3133,-0.3121,-0.3126,-0.3089,-0.3081,-0.2988,-0.3033,-0.2918,-0.2971,-0.2731,-0.2716,-0.2562,-0.253,-0.2531,-0.2928,-0.2928,-0.2928,-0.2928,0,-0.2894,-0.2911,-0.298,-0.299,-0.301,-0.3052,-0.3054,-0.3082,-0.3091,-0.3073,-0.3117,-0.3075,-0.3095,-0.3024,-0.2989,-0.2812,-0.2908,-0.2719,-0.2677,-0.2598,-0.2572,-0.2521,-0.2564,-0.2924,-0.2925,-0.2926,-0.2926,0,-0.2826,-0.2885,-0.2914,-0.2975,-0.2989,-0.2994,-0.3017,-0.3006,-0.3042,-0.3021,-0.3026,-0.3025,-0.2932,-0.2881,-0.2813,-0.2749,-0.2583,-0.2542,-0.2409,-0.2352,-0.2173,-0.2226,-0.2124,-0.2062,-0.2326,-0.232,-0.2316,0,-0.2786,-0.2799,-0.2874,-0.2883,-0.2905,-0.292,-0.2914,-0.2962,-0.2949,-0.296,-0.2932,-0.2854,-0.2729,-0.2529,-0.2417,-0.227,-0.2316,-0.2077,-0.2143,-0.2116,-0.215,-0.2209,-0.2172,-0.2001,-0.1994,-0.1989,-0.1984,0,-0.2686,-0.2724,-0.2746,-0.2777,-0.2786,-0.2793,-0.2798,-0.2775,-0.2813,-0.2767,-0.2675,-0.2583,-0.2406,-0.2181,-0.1973,-0.1895,-0.2042,-0.1954,-0.1995,-0.1928,-0.1928,-0.1861,-0.2096,-0.1935,-0.194,-0.1943,-0.1946,-0.1948,-0.2587,-0.2585,-0.2618,-0.2638,-0.265,-0.262,-0.2526,-0.252,-0.2428,-0.2279,-0.2349,-0.211,-0.2037,-0.1725,-0.1642,-0.1507,-0.1625,-0.1502,-0.1577,-0.1646,-0.1559,-0.1632,-0.1377,-0.1379,-0.138,-0.1381,-0.1382,0,-0.2448,-0.2458,-0.2465,-0.2468,-0.2404,-0.2464,-0.2391,-0.2227,-0.2011,-0.1928,-0.1758,-0.1588,-0.1405,-0.1382,-0.1289,-0.1203,-0.1235,-0.1182,-0.1316,-0.1304,-0.1417,-0.1375,-0.1023,-0.1023,-0.1023,-0.1023,-0.1023,-0.1023,-0.2362,-0.2325,-0.234,-0.2206,-0.218,-0.1982,-0.1874,-0.1663,-0.1513,-0.1194,-0.1039,-0.094,-0.1066,-0.1273,-0.1214,-0.1138,-0.1175,-0.1074,-0.1143,-0.1319,-0.1359,-0.1398,-0.1369,-0.1023,-0.1023,-0.0985,-0.0985,-0.0985]},{"header":{"parameterUnit":"m.s-1","parameterCategory":2,"la1":30.2991,"la2":30.254,"lo1":-89.0895,"lo2":-89.0444,"dy":0.0017,"dx":0.0017,"nx":28,"ny":28,"refTime":"2024-05-27T03:00:00:Z","depth":"0","parameterNumber":3,"parameterNumberName":"V-component_of_CURRENTS"},"data":[0,0,0,0,0,0,0,0,0,0,0,0,0,0,0,0,0,0,0,0,0,0,0,0,0,0,0,0,0,0,0,0,0,0,0,0,0,0,0,0,0,0,0,0,0,0,0,0,0,0,0,0,0,0,0,0,0,0,-0.072,-0.0721,0,-0.0703,-0.0703,-0.0702,-0.0647,-0.0647,-0.0646,-0.0645,-0.0537,-0.0535,-0.0532,0,0,0,0,0,0,0,0,0,0,0,0,0,-0.054,-0.0544,-0.072,-0.0721,-0.0721,-0.0703,-0.0703,-0.0702,-0.0647,-0.0646,-0.0646,-0.0645,-0.0537,-0.0535,-0.0532,0,0,0,0,0,0,0,0,0,0,0,0,0,-0.0575,-0.0545,-0.072,-0.0696,-0.0694,-0.0704,-0.0703,-0.0702,-0.0648,-0.0646,-0.0645,-0.0644,-0.0538,-0.0535,-0.0532,-0.0532,0,0,-0.0521,-0.052,0,0,0,0,0,0,0,0,-0.0573,-0.0581,-0.0699,-0.0698,-0.0696,-0.0681,-0.0599,-0.0642,-0.0648,-0.0659,-0.0645,-0.0644,-0.0581,-0.0574,-0.0566,-0.0527,-0.0522,-0.0521,-0.0519,-0.0518,-0.0517,0,0,0,0,0,0,0,-0.0571,-0.0581,-0.0708,-0.07,-0.0698,-0.0629,-0.0634,-0.0606,-0.062,-0.0658,-0.0655,-0.0663,-0.0579,-0.057,-0.0563,-0.052,-0.0521,-0.0518,-0.0516,-0.0515,-0.0448,-0.0448,0,0,0,0,0,0,-0.0596,-0.058,-0.0708,-0.0708,-0.0637,-0.0635,-0.064,-0.0682,-0.0622,-0.0614,-0.0664,-0.0661,-0.0576,-0.0567,-0.0559,-0.0555,-0.0518,-0.0515,-0.0513,-0.0448,-0.0448,-0.0448,0,0,0,0,0,0,-0.0593,-0.0609,-0.0709,-0.0645,-0.0654,-0.0641,-0.0688,-0.0683,-0.0677,-0.0629,-0.0618,-0.0665,-0.0575,-0.0564,-0.0535,-0.055,-0.0513,-0.051,-0.0447,-0.0448,-0.0448,-0.0547,0,0,0,0,0,0,-0.0588,-0.0609,-0.0642,-0.0649,-0.0659,-0.0733,-0.0689,-0.0683,-0.0686,-0.0681,-0.0626,-0.0615,-0.0573,-0.054,-0.0532,-0.0545,-0.0507,-0.0447,-0.0448,-0.0448,-0.0544,-0.0551,-0.0557,0,0,0,0,0,-0.0582,-0.0649,-0.0644,-0.0659,-0.0709,-0.0735,-0.0734,-0.0713,-0.0688,-0.07,-0.065,-0.0616,-0.0536,-0.0538,-0.0528,-0.0541,-0.0447,-0.0447,-0.0448,-0.054,-0.0549,-0.0557,0,0,0,0,0,0,-0.0597,-0.065,-0.0645,-0.0727,-0.0734,-0.0728,-0.0741,-0.0723,-0.0695,-0.0682,-0.0623,-0.0609,-0.0589,-0.055,-0.0553,-0.052,-0.0485,-0.0484,-0.0559,-0.0567,-0.0573,-0.0606,-0.0505,0,0,0,0,0,-0.0617,-0.0675,-0.0698,-0.0759,-0.0766,-0.075,-0.0755,-0.0744,-0.0725,-0.0712,-0.0667,-0.0617,-0.0584,-0.0564,-0.0528,-0.0515,-0.0461,-0.0513,-0.052,-0.0526,-0.0544,-0.0509,-0.0515,-0.045,-0.045,-0.045,0,0,-0.0639,-0.0676,-0.0708,-0.0764,-0.0761,-0.0786,-0.0749,-0.0771,-0.0779,-0.0704,-0.0687,-0.0642,-0.0586,-0.0568,-0.0555,-0.0537,-0.0501,-0.0527,-0.0533,-0.0548,-0.0511,-0.0517,-0.0523,-0.045,-0.045,-0.045,0,0,-0.0708,-0.0743,-0.0803,-0.0815,-0.0833,-0.0821,-0.0833,-0.0825,-0.0807,-0.0794,-0.0738,-0.0707,-0.065,-0.0618,-0.0594,-0.0617,-0.0541,-0.0598,-0.0659,-0.0625,-0.0631,-0.0635,-0.0516,-0.051,-0.06,-0.06,-0.06,0,-0.0727,-0.0814,-0.082,-0.0867,-0.088,-0.0842,-0.0884,-0.0867,-0.0845,-0.0837,-0.08,-0.0727,-0.0678,-0.0665,-0.0669,-0.0636,-0.0576,-0.0636,-0.0637,-0.064,-0.0643,-0.0521,-0.0512,-0.0605,-0.0604,-0.0604,-0.0603,0,-0.0831,-0.0886,-0.0919,-0.0964,-0.0974,-0.1008,-0.0987,-0.098,-0.0943,-0.092,-0.0894,-0.0825,-0.0785,-0.076,-0.0721,-0.0721,-0.0652,-0.0653,-0.0624,-0.0657,-0.0523,-0.0513,-0.0612,-0.061,-0.0608,-0.0607,0,0,-0.0909,-0.0981,-0.0989,-0.1017,-0.1028,-0.1052,-0.1057,-0.1061,-0.1068,-0.1019,-0.1016,-0.0959,-0.0917,-0.0887,-0.0829,-0.0799,-0.0742,-0.0743,-0.0739,-0.0636,-0.0604,-0.0492,-0.0468,-0.0751,-0.0751,-0.0752,-0.048,0,-0.098,-0.1091,-0.1097,-0.1166,-0.1209,-0.1173,-0.1188,-0.1178,-0.1138,-0.1118,-0.1049,-0.1022,-0.0965,-0.0945,-0.0908,-0.0788,-0.0729,-0.0812,-0.0577,-0.0569,-0.0479,-0.046,-0.04,-0.0151,-0.047,-0.0468,-0.0466,0,-0.1078,-0.1134,-0.1229,-0.1273,-0.1287,-0.1315,-0.1322,-0.1326,-0.1283,-0.125,-0.1208,-0.1143,-0.1073,-0.103,-0.0846,-0.09,-0.0769,-0.0669,-0.0657,-0.0523,-0.0441,-0.018,-0.0119,0.0031,-0.0449,-0.0451,-0.0452,0,-0.1141,-0.1223,-0.1301,-0.1319,-0.1361,-0.1387,-0.1394,-0.1374,-0.1376,-0.1329,-0.1308,-0.1223,-0.1141,-0.1021,-0.0789,-0.0828,-0.0556,-0.058,-0.0343,-0.0329,-0.0217,-0.0194,-0.0002,-0.0468,-0.0469,-0.047,-0.0471,0,-0.1232,-0.1289,-0.1341,-0.1385,-0.1468,-0.1457,-0.1511,-0.1506,-0.1476,-0.1458,-0.1381,-0.1315,-0.1144,-0.0959,-0.0793,-0.0493,-0.0544,-0.0339,-0.0269,-0.0239,-0.0223,-0.004,0.0007,-0.0459,-0.0462,-0.0464,-0.0465,0,-0.1307,-0.1343,-0.1434,-0.149,-0.1511,-0.157,-0.1599,-0.1625,-0.1577,-0.1542,-0.1528,-0.1359,-0.1096,-0.0873,-0.0598,-0.0453,-0.0089,-0.01,-0.0026,0.0044,0.0348,0.0386,0.0664,0.0773,0.0178,0.0182,0.0185,0,-0.1366,-0.1421,-0.1515,-0.1574,-0.1609,-0.1673,-0.1715,-0.1694,-0.1694,-0.1542,-0.1521,-0.1265,-0.1038,-0.056,-0.0264,0.0088,0.0154,0.0314,0.0213,0.0391,0.0486,0.0496,0.0565,0.0368,0.0373,0.0377,0.038,0,-0.1459,-0.149,-0.1569,-0.1678,-0.175,-0.1806,-0.1841,-0.184,-0.1758,-0.1673,-0.1451,-0.1245,-0.0757,-0.0312,0.0127,0.0303,0.0431,0.0402,0.0543,0.0616,0.0683,0.0812,0.0223,0.0414,0.0411,0.0408,0.0406,0.0405,-0.1522,-0.1605,-0.1693,-0.1794,-0.1863,-0.1886,-0.1866,-0.1841,-0.1763,-0.1533,-0.1365,-0.0932,-0.039,0.0253,0.0461,0.0863,0.0771,0.0925,0.0961,0.0959,0.1032,0.0558,0.0832,0.0831,0.083,0.0829,0.0829,0,-0.1607,-0.1687,-0.1789,-0.1887,-0.1925,-0.1934,-0.1906,-0.1811,-0.1638,-0.1388,-0.1107,-0.0343,0.0196,0.0667,0.1202,0.1394,0.1398,0.146,0.1462,0.1505,0.1067,0.1039,0.1422,0.1421,0.1421,0.1421,0.1421,0.1421,-0.1657,-0.1785,-0.1833,-0.1905,-0.1926,-0.1867,-0.1797,-0.1637,-0.1416,-0.0908,-0.041,-0.0028,0.0601,0.1346,0.1798,0.1831,0.1975,0.1969,0.2047,0.1704,0.1654,0.1606,0.1591,0.2083,0.2084,0.2464,0.2468,0.2471]}],[{"header":{"parameterUnit":"m.s-1","parameterCategory":2,"la1":30.2991,"la2":30.254,"lo1":-89.0895,"lo2":-89.0444,"dy":0.0017,"dx":0.0017,"nx":28,"ny":28,"refTime":"2024-05-27T03:00:00:Z","depth":"2","parameterNumber":2,"parameterNumberName":"U-component_of_CURRENTS"},"data":[0,0,0,0,0,0,0,0,0,0,0,0,0,0,0,0,0,0,0,0,0,0,0,0,0,0,0,0,0,0,0,0,0,0,0,0,0,0,0,0,0,0,0,0,0,0,0,0,0,0,0,0,0,0,0,0,0,0,-0.1657,-0.1657,0,-0.1728,-0.1729,-0.173,-0.1736,-0.1736,-0.1735,-0.1734,-0.1755,-0.1756,-0.1758,0,0,0,0,0,0,0,0,0,0,0,0,0,-0.1659,-0.1658,-0.1656,-0.1657,-0.1658,-0.1728,-0.1729,-0.173,-0.1737,-0.1736,-0.1735,-0.1734,-0.1755,-0.1756,-0.1758,0,0,0,0,0,0,0,0,0,0,0,0,0,-0.1687,-0.1658,-0.1656,-0.1669,-0.1671,-0.1728,-0.1729,-0.173,-0.1737,-0.1736,-0.1734,-0.1733,-0.1754,-0.1756,-0.1758,-0.1795,0,0,-0.1764,-0.1765,0,0,0,0,0,0,0,0,-0.1685,-0.1687,-0.1667,-0.1668,-0.1671,-0.1721,-0.1738,-0.1749,-0.1737,-0.1713,-0.1734,-0.1733,-0.174,-0.1743,-0.1761,-0.1796,-0.1797,-0.1764,-0.1766,-0.1766,-0.1767,0,0,0,0,0,0,0,-0.1683,-0.1685,-0.1685,-0.1668,-0.167,-0.1717,-0.1719,-0.1741,-0.1732,-0.1715,-0.1715,-0.1722,-0.174,-0.1759,-0.1761,-0.1797,-0.1764,-0.1766,-0.1767,-0.1768,-0.1883,-0.1884,0,0,0,0,0,0,-0.1667,-0.1682,-0.1683,-0.1688,-0.1674,-0.1718,-0.1719,-0.1707,-0.1733,-0.1736,-0.1723,-0.1722,-0.1756,-0.1759,-0.1762,-0.1841,-0.1766,-0.1768,-0.1769,-0.1881,-0.1883,-0.1885,0,0,0,0,0,0,-0.1667,-0.1666,-0.168,-0.1688,-0.1692,-0.1718,-0.1705,-0.1709,-0.1736,-0.174,-0.1741,-0.1747,-0.1755,-0.1759,-0.1798,-0.184,-0.1769,-0.1771,-0.1879,-0.1881,-0.1884,-0.1977,0,0,0,0,0,0,-0.1666,-0.1665,-0.165,-0.1685,-0.1691,-0.1732,-0.1706,-0.1711,-0.1742,-0.1741,-0.176,-0.1761,-0.1754,-0.1795,-0.18,-0.1841,-0.1772,-0.1876,-0.188,-0.1883,-0.1971,-0.1982,-0.1992,0,0,0,0,0,-0.1666,-0.1692,-0.1648,-0.1649,-0.1669,-0.1734,-0.1743,-0.1757,-0.1744,-0.1774,-0.178,-0.176,-0.182,-0.1799,-0.1804,-0.1847,-0.1875,-0.1879,-0.1883,-0.1967,-0.198,-0.1992,0,0,0,0,0,0,-0.1695,-0.1695,-0.1649,-0.1669,-0.1689,-0.1735,-0.1783,-0.1769,-0.1801,-0.1801,-0.179,-0.1792,-0.184,-0.1832,-0.1809,-0.1889,-0.1842,-0.1848,-0.1905,-0.1917,-0.1927,-0.1898,-0.1774,0,0,0,0,0,-0.1683,-0.1689,-0.1696,-0.1704,-0.1735,-0.1749,-0.1775,-0.1775,-0.1807,-0.182,-0.1836,-0.1848,-0.1863,-0.1879,-0.1896,-0.1947,-0.1907,-0.1975,-0.1986,-0.1994,-0.1974,-0.1964,-0.1971,-0.1899,-0.1899,-0.1899,0,0,-0.1673,-0.1692,-0.1677,-0.1708,-0.174,-0.1785,-0.1766,-0.1825,-0.1844,-0.1818,-0.1882,-0.1889,-0.1884,-0.1938,-0.1958,-0.1936,-0.1998,-0.2,-0.2007,-0.1981,-0.1969,-0.1976,-0.1982,-0.1901,-0.1901,-0.1901,0,0,-0.1704,-0.1705,-0.1722,-0.1765,-0.1813,-0.1832,-0.1848,-0.19,-0.1917,-0.196,-0.1946,-0.1969,-0.2016,-0.2016,-0.2016,-0.2091,-0.2051,-0.2113,-0.2147,-0.2139,-0.2144,-0.2148,-0.2117,-0.2118,-0.2121,-0.2121,-0.2122,0,-0.1698,-0.171,-0.1742,-0.1805,-0.1845,-0.1856,-0.19,-0.1931,-0.1975,-0.1989,-0.199,-0.2041,-0.2042,-0.2074,-0.2101,-0.2112,-0.2096,-0.2103,-0.2151,-0.2154,-0.2156,-0.2123,-0.2123,-0.2126,-0.2126,-0.2125,-0.2125,0,-0.1755,-0.1761,-0.1816,-0.1864,-0.1915,-0.1978,-0.2017,-0.2049,-0.2065,-0.2079,-0.2128,-0.2138,-0.2148,-0.2175,-0.2159,-0.2191,-0.2171,-0.2163,-0.2116,-0.2169,-0.2131,-0.2129,-0.2133,-0.2132,-0.213,-0.2129,0,0,-0.1741,-0.1824,-0.1835,-0.1849,-0.1957,-0.2,-0.2058,-0.2102,-0.212,-0.217,-0.2196,-0.2236,-0.2231,-0.2228,-0.2228,-0.2234,-0.2243,-0.2214,-0.2211,-0.2175,-0.2217,-0.2135,-0.2124,-0.2257,-0.2257,-0.2257,-0.2187,0,-0.1766,-0.1855,-0.1898,-0.1958,-0.201,-0.2055,-0.2105,-0.2143,-0.218,-0.222,-0.2231,-0.2268,-0.2257,-0.2266,-0.2269,-0.2253,-0.2239,-0.226,-0.2176,-0.2172,-0.2087,-0.2119,-0.1971,-0.1891,-0.2184,-0.2184,-0.2183,0,-0.1795,-0.1855,-0.193,-0.198,-0.2012,-0.2045,-0.2117,-0.2161,-0.2216,-0.2244,-0.2276,-0.2295,-0.2312,-0.2293,-0.227,-0.2292,-0.2246,-0.223,-0.2227,-0.2106,-0.2085,-0.1884,-0.1874,-0.2178,-0.2178,-0.2179,-0.2179,0,-0.1764,-0.1856,-0.1912,-0.1954,-0.2041,-0.2055,-0.2086,-0.2157,-0.2193,-0.2256,-0.2281,-0.2314,-0.2307,-0.2294,-0.2248,-0.2268,-0.2207,-0.2224,-0.2099,-0.2093,-0.192,-0.1898,-0.2176,-0.2176,-0.2176,-0.2177,-0.2177,0,-0.1757,-0.1791,-0.1893,-0.1923,-0.1957,-0.2041,-0.2073,-0.2101,-0.2173,-0.2201,-0.228,-0.2278,-0.2307,-0.2281,-0.2251,-0.2154,-0.2195,-0.2089,-0.2068,-0.1951,-0.1933,-0.2143,-0.214,-0.2174,-0.2175,-0.2175,-0.2176,0,-0.1667,-0.1755,-0.1806,-0.1905,-0.1933,-0.1947,-0.2018,-0.2042,-0.2132,-0.2162,-0.2183,-0.2239,-0.2203,-0.2209,-0.2162,-0.2123,-0.2067,-0.2009,-0.1858,-0.1821,-0.1961,-0.1964,-0.1886,-0.1883,-0.188,-0.1877,-0.1875,0,-0.1639,-0.1661,-0.1767,-0.1785,-0.1811,-0.1861,-0.1888,-0.1986,-0.2019,-0.2109,-0.2103,-0.211,-0.2057,-0.1984,-0.1929,-0.1859,-0.1935,-0.1687,-0.1692,-0.1942,-0.1931,-0.1938,-0.1945,-0.1505,-0.15,-0.1496,-0.1493,0,-0.1554,-0.1593,-0.1633,-0.1674,-0.17,-0.1727,-0.1768,-0.1792,-0.1908,-0.1934,-0.1928,-0.1903,-0.1841,-0.1703,-0.1638,-0.1583,-0.1705,-0.1601,-0.1889,-0.1608,-0.1579,-0.157,-0.1589,-0.1457,-0.1461,-0.1463,-0.1465,-0.1467,-0.1495,-0.1485,-0.1542,-0.1545,-0.1585,-0.1577,-0.1538,-0.1606,-0.1622,-0.1636,-0.1693,-0.1616,-0.1612,-0.1427,-0.1347,-0.1306,-0.1426,-0.1388,-0.1402,-0.142,-0.1395,-0.1363,-0.1194,-0.1196,-0.1198,-0.12,-0.1201,0,-0.1402,-0.1399,-0.1407,-0.1417,-0.1392,-0.1446,-0.1458,-0.1408,-0.1365,-0.1399,-0.1372,-0.1232,-0.1139,-0.1148,-0.1022,-0.1004,-0.101,-0.0971,-0.099,-0.1024,-0.1056,-0.1015,-0.0712,-0.071,-0.0709,-0.0708,0,0,-0.134,-0.1322,-0.1307,-0.1231,-0.1236,-0.1156,-0.1122,-0.1067,-0.1059,-0.0986,-0.0964,-0.1057,-0.1096,-0.0909,-0.0864,-0.0765,-0.0884,-0.072,-0.1108,-0.1163,-0.1193,-0.1288,-0.1262,0,0,0,0,0]},{"header":{"parameterUnit":"m.s-1","parameterCategory":2,"la1":30.2991,"la2":30.254,"lo1":-89.0895,"lo2":-89.0444,"dy":0.0017,"dx":0.0017,"nx":28,"ny":28,"refTime":"2024-05-27T03:00:00:Z","depth":"2","parameterNumber":3,"parameterNumberName":"V-component_of_CURRENTS"},"data":[0,0,0,0,0,0,0,0,0,0,0,0,0,0,0,0,0,0,0,0,0,0,0,0,0,0,0,0,0,0,0,0,0,0,0,0,0,0,0,0,0,0,0,0,0,0,0,0,0,0,0,0,0,0,0,0,0,0,-0.0001,-0.0001,0,0.002,0.002,0.002,0.0047,0.0048,0.0048,0.0048,0.0132,0.0134,0.0135,0,0,0,0,0,0,0,0,0,0,0,0,0,-0.0046,-0.0045,-0.0001,-0.0001,-0.0001,0.002,0.002,0.002,0.0047,0.0048,0.0048,0.0049,0.0131,0.0133,0.0135,0,0,0,0,0,0,0,0,0,0,0,0,0,-0.0026,-0.0044,-0.0001,0.0015,0.0017,0.002,0.002,0.002,0.0047,0.0048,0.0048,0.0049,0.013,0.0133,0.0136,0.0139,0,0,0.0144,0.0145,0,0,0,0,0,0,0,0,-0.0027,-0.0024,0.0013,0.0014,0.0016,0.0032,0.0035,0.0063,0.0047,0.0035,0.0048,0.0049,0.0104,0.0109,0.011,0.0143,0.0147,0.0144,0.0146,0.0147,0.0148,0,0,0,0,0,0,0,-0.0028,-0.0025,0.0007,0.0013,0.0015,0.0012,0.0016,0.004,0.0067,0.0036,0.0038,0.0041,0.0105,0.0107,0.0112,0.0148,0.0144,0.0147,0.0148,0.0149,0.0217,0.0218,0,0,0,0,0,0,-0.003,-0.0026,0.0006,0.0008,-0.0004,0.0013,0.0017,0.0026,0.0065,0.0071,0.004,0.0042,0.0102,0.0109,0.0116,0.014,0.0147,0.015,0.0151,0.0217,0.0217,0.0218,0,0,0,0,0,0,-0.0031,-0.0027,0.0006,-0.0009,-0.0005,0.0013,0.0023,0.0026,0.0028,0.0067,0.0075,0.0039,0.0103,0.0112,0.0134,0.0143,0.0151,0.0153,0.0217,0.0217,0.0218,0.0178,0,0,0,0,0,0,-0.0032,-0.0027,-0.0024,-0.0009,-0.0004,-0.0001,0.0022,0.0026,0.0029,0.0031,0.0069,0.0077,0.0104,0.0129,0.0136,0.0147,0.0155,0.0217,0.0217,0.0217,0.0179,0.0177,0.0175,0,0,0,0,0,-0.0033,-0.0043,-0.0024,-0.002,0.0001,-0.0001,0.0,0.0015,0.0028,0.0021,0.005,0.0076,0.0137,0.0131,0.014,0.0151,0.0217,0.0217,0.0217,0.018,0.0178,0.0175,0,0,0,0,0,0,-0.0061,-0.0041,-0.0019,-0.002,-0.001,0.0003,-0.0007,0.001,0.0026,0.003,0.0071,0.0081,0.0105,0.0131,0.0123,0.0173,0.0184,0.0186,0.0153,0.0151,0.0149,0.0144,0.0158,0,0,0,0,0,-0.0064,-0.0062,-0.0041,-0.004,-0.0041,-0.0022,-0.0021,-0.0008,0.0008,0.0015,0.0046,0.0081,0.0112,0.0132,0.0158,0.0181,0.0211,0.0197,0.0195,0.0193,0.0195,0.0246,0.0248,0.0219,0.0219,0.0219,0,0,-0.0066,-0.0061,-0.0053,-0.0045,-0.0039,-0.0045,-0.0021,-0.0026,-0.0018,0.0023,0.0038,0.0069,0.0115,0.014,0.0155,0.0165,0.0215,0.0194,0.0192,0.0195,0.0246,0.0249,0.0252,0.0219,0.0219,0.0219,0,0,-0.0096,-0.0075,-0.0091,-0.0088,-0.0085,-0.007,-0.0073,-0.0058,-0.0041,-0.0024,0.0013,0.0049,0.0089,0.013,0.0155,0.0159,0.0197,0.0168,0.0161,0.021,0.0213,0.0216,0.0245,0.0251,0.0174,0.0174,0.0174,0,-0.0106,-0.0116,-0.0097,-0.0119,-0.0118,-0.0084,-0.0101,-0.0079,-0.0053,-0.0035,-0.0024,0.0053,0.0088,0.0139,0.0141,0.0156,0.018,0.0165,0.0207,0.0211,0.0215,0.0244,0.0251,0.0172,0.0172,0.0172,0.0173,0,-0.0152,-0.0155,-0.0172,-0.0176,-0.017,-0.0184,-0.015,-0.0135,-0.0106,-0.0074,-0.0026,0.0026,0.0075,0.0096,0.012,0.0168,0.0175,0.0192,0.0211,0.0215,0.0246,0.0253,0.0169,0.017,0.0171,0.0171,0,0,-0.019,-0.0202,-0.0208,-0.0216,-0.0203,-0.0208,-0.0187,-0.016,-0.0144,-0.0094,-0.0065,0.0005,0.0041,0.0073,0.0118,0.0166,0.021,0.0187,0.019,0.021,0.0304,0.0313,0.0323,0.0234,0.0235,0.0236,0.031,0,-0.0236,-0.0289,-0.0272,-0.0298,-0.0317,-0.0273,-0.0257,-0.0218,-0.0174,-0.0136,-0.0054,-0.0017,0.0033,0.0053,0.0114,0.0182,0.0231,0.0188,0.0301,0.0305,0.0309,0.0333,0.0325,0.0391,0.0318,0.0319,0.032,0,-0.0291,-0.0317,-0.036,-0.0358,-0.0363,-0.0362,-0.0329,-0.0311,-0.0235,-0.0199,-0.0128,-0.0069,0.0016,0.0048,0.0189,0.0157,0.0226,0.0283,0.0288,0.0318,0.0329,0.0379,0.0409,0.0334,0.0333,0.0332,0.0331,0,-0.0345,-0.0376,-0.0413,-0.0415,-0.0407,-0.0404,-0.0392,-0.0331,-0.0314,-0.024,-0.0219,-0.0103,-0.0053,0.006,0.0189,0.0186,0.0336,0.0347,0.0424,0.0424,0.0452,0.0453,0.0445,0.0445,0.0445,0.0445,0.0445,0,-0.0398,-0.0427,-0.0442,-0.0463,-0.049,-0.0461,-0.0468,-0.0432,-0.0381,-0.0361,-0.0259,-0.0207,-0.0048,0.0062,0.0177,0.0328,0.0333,0.0429,0.0452,0.0437,0.0435,0.0415,0.041,0.0448,0.0447,0.0446,0.0446,0,-0.0439,-0.0455,-0.0502,-0.0515,-0.0518,-0.0538,-0.0531,-0.053,-0.0477,-0.0446,-0.0428,-0.0285,-0.0136,0.0024,0.0208,0.0306,0.0447,0.0497,0.0457,0.0475,0.0501,0.0494,0.0587,0.0588,0.0589,0.059,0.0591,0,-0.0469,-0.0495,-0.0549,-0.0577,-0.0583,-0.0607,-0.0617,-0.0581,-0.0573,-0.0483,-0.0467,-0.0322,-0.0188,0.0083,0.0276,0.0477,0.048,0.0566,0.0568,0.0507,0.052,0.0511,0.0503,0.0585,0.0585,0.0586,0.0586,0,-0.0508,-0.053,-0.0575,-0.0637,-0.0667,-0.0695,-0.0703,-0.0711,-0.066,-0.0602,-0.0484,-0.037,-0.0112,0.0135,0.0371,0.0484,0.0533,0.0581,0.0551,0.0543,0.0509,0.052,0.0511,0.059,0.059,0.0589,0.0589,0.0589,-0.0538,-0.0588,-0.0649,-0.0695,-0.074,-0.0766,-0.0773,-0.0755,-0.0717,-0.0603,-0.0494,-0.0289,-0.0077,0.029,0.0456,0.0594,0.0593,0.0637,0.0634,0.063,0.061,0.058,0.0669,0.0669,0.0669,0.0669,0.0669,0,-0.0568,-0.0627,-0.0691,-0.0758,-0.0803,-0.0805,-0.0815,-0.0786,-0.0719,-0.0578,-0.0421,-0.0162,0.0103,0.0304,0.0539,0.0676,0.0662,0.0684,0.0652,0.0648,0.0644,0.0623,0.0686,0.0686,0.0687,0.0687,0,0,-0.0579,-0.0668,-0.0703,-0.0786,-0.0826,-0.0843,-0.0837,-0.0765,-0.0658,-0.0494,-0.0328,-0.0113,0.013,0.0302,0.0476,0.0592,0.0578,0.0592,0.0567,0.0506,0.0501,0.0609,0.0571,0,0,0,0,0]}],[{"header":{"parameterUnit":"m.s-1","parameterCategory":2,"la1":30.2991,"la2":30.254,"lo1":-89.0895,"lo2":-89.0444,"dy":0.0017,"dx":0.0017,"nx":28,"ny":28,"refTime":"2024-05-27T03:00:00:Z","depth":"4","parameterNumber":2,"parameterNumberName":"U-component_of_CURRENTS"},"data":[0,0,0,0,0,0,0,0,0,0,0,0,0,0,0,0,0,0,0,0,0,0,0,0,0,0,0,0,0,0,0,0,0,0,0,0,0,0,0,0,0,0,0,0,0,0,0,0,0,0,0,0,0,0,0,0,0,0,-0.1174,-0.1175,0,-0.1236,-0.1237,-0.1237,-0.1288,-0.1289,-0.129,-0.1291,-0.1341,-0.1342,-0.1342,0,0,0,0,0,0,0,0,0,0,0,0,0,-0.1074,-0.1075,-0.1174,-0.1175,-0.1176,-0.1236,-0.1237,-0.1238,-0.1288,-0.1289,-0.129,-0.1291,-0.1341,-0.1342,-0.1342,0,0,0,0,0,0,0,0,0,0,0,0,0,-0.1123,-0.1076,-0.1174,-0.121,-0.1214,-0.1236,-0.1237,-0.1238,-0.1288,-0.1289,-0.129,-0.1291,-0.1341,-0.1341,-0.1342,-0.1327,0,0,-0.1346,-0.1346,0,0,0,0,0,0,0,0,-0.112,-0.1126,-0.1204,-0.1208,-0.1212,-0.1258,-0.122,-0.1268,-0.1288,-0.1258,-0.1291,-0.1292,-0.1313,-0.1316,-0.1322,-0.1329,-0.1331,-0.1346,-0.1346,-0.1347,-0.1347,0,0,0,0,0,0,0,-0.1116,-0.1124,-0.1197,-0.1205,-0.121,-0.1215,-0.1223,-0.1229,-0.1276,-0.1261,-0.1265,-0.1275,-0.1315,-0.1321,-0.1324,-0.1332,-0.1346,-0.1346,-0.1347,-0.1347,-0.1419,-0.142,0,0,0,0,0,0,-0.1113,-0.1121,-0.1195,-0.1199,-0.117,-0.1216,-0.1225,-0.124,-0.1277,-0.1284,-0.1274,-0.1277,-0.1319,-0.1323,-0.1326,-0.1393,-0.1347,-0.1348,-0.1348,-0.1418,-0.1419,-0.1421,0,0,0,0,0,0,-0.1111,-0.112,-0.1192,-0.1162,-0.1172,-0.1217,-0.1233,-0.1241,-0.1266,-0.1287,-0.1294,-0.1294,-0.132,-0.1325,-0.1357,-0.1392,-0.1348,-0.1349,-0.1416,-0.1418,-0.142,-0.1473,0,0,0,0,0,0,-0.1108,-0.1118,-0.1128,-0.1162,-0.1174,-0.1215,-0.1233,-0.1241,-0.127,-0.1276,-0.1306,-0.1311,-0.1321,-0.1356,-0.1358,-0.1393,-0.135,-0.1415,-0.1417,-0.142,-0.147,-0.1477,-0.1482,0,0,0,0,0,-0.1104,-0.1116,-0.1128,-0.1138,-0.1186,-0.1215,-0.1222,-0.1255,-0.127,-0.1281,-0.1312,-0.1311,-0.1374,-0.1357,-0.136,-0.1396,-0.1413,-0.1417,-0.1419,-0.1467,-0.1475,-0.1482,0,0,0,0,0,0,-0.1082,-0.1123,-0.1138,-0.1163,-0.1191,-0.1225,-0.124,-0.126,-0.1291,-0.1303,-0.1321,-0.1328,-0.1371,-0.1371,-0.1353,-0.1424,-0.1396,-0.1399,-0.1431,-0.1439,-0.1445,-0.1437,-0.1351,0,0,0,0,0,-0.1079,-0.1096,-0.1136,-0.1154,-0.1171,-0.1206,-0.1222,-0.1247,-0.1279,-0.1295,-0.1321,-0.1351,-0.1381,-0.14,-0.1419,-0.145,-0.144,-0.1477,-0.1483,-0.1489,-0.1485,-0.1502,-0.1509,-0.1431,-0.1431,-0.143,0,0,-0.1076,-0.1099,-0.111,-0.115,-0.1175,-0.1209,-0.1219,-0.1251,-0.129,-0.1293,-0.1351,-0.1369,-0.1392,-0.1438,-0.1457,-0.1446,-0.1507,-0.1493,-0.1497,-0.149,-0.1505,-0.1513,-0.152,-0.1433,-0.1432,-0.1432,0,0,-0.1072,-0.11,-0.1113,-0.114,-0.1181,-0.1211,-0.1224,-0.1271,-0.1303,-0.1351,-0.1372,-0.1408,-0.1452,-0.148,-0.1499,-0.1547,-0.1536,-0.1561,-0.1594,-0.1611,-0.1617,-0.1623,-0.1621,-0.1626,-0.157,-0.157,-0.157,0,-0.1064,-0.1094,-0.112,-0.1144,-0.1174,-0.1216,-0.1248,-0.1287,-0.1342,-0.1374,-0.1379,-0.1458,-0.1474,-0.1534,-0.1559,-0.1561,-0.1563,-0.1564,-0.1619,-0.1624,-0.1628,-0.1626,-0.163,-0.1573,-0.1573,-0.1572,-0.1572,0,-0.1076,-0.1104,-0.1116,-0.1166,-0.1201,-0.1233,-0.1295,-0.1341,-0.1387,-0.1426,-0.1492,-0.1516,-0.1564,-0.1581,-0.1588,-0.164,-0.1627,-0.162,-0.1597,-0.1639,-0.1634,-0.1638,-0.1577,-0.1576,-0.1575,-0.1575,0,0,-0.1046,-0.111,-0.1117,-0.1149,-0.1218,-0.1252,-0.1323,-0.1398,-0.1455,-0.1504,-0.1568,-0.162,-0.1632,-0.1652,-0.1666,-0.1683,-0.1718,-0.1672,-0.1672,-0.1666,-0.1748,-0.1616,-0.1607,-0.1727,-0.1728,-0.1729,-0.1731,0,-0.1048,-0.1093,-0.1133,-0.1196,-0.1228,-0.1298,-0.1365,-0.144,-0.1504,-0.1575,-0.1612,-0.167,-0.1662,-0.169,-0.1709,-0.1716,-0.1731,-0.1717,-0.1711,-0.171,-0.1584,-0.1608,-0.1732,-0.1734,-0.1735,-0.1736,-0.1736,0,-0.1043,-0.1079,-0.1126,-0.1222,-0.1247,-0.13,-0.1418,-0.1482,-0.1587,-0.1634,-0.1691,-0.1721,-0.1767,-0.1747,-0.1775,-0.177,-0.1764,-0.1759,-0.1759,-0.1615,-0.1584,-0.1683,-0.1742,-0.1742,-0.1741,-0.1741,-0.1741,0,-0.0993,-0.108,-0.1118,-0.1147,-0.1256,-0.131,-0.1387,-0.1498,-0.1561,-0.1666,-0.1707,-0.177,-0.1794,-0.1806,-0.1797,-0.1798,-0.1807,-0.1806,-0.1679,-0.167,-0.1765,-0.1759,-0.1819,-0.1819,-0.1819,-0.1819,-0.1819,0,-0.0958,-0.0995,-0.1106,-0.112,-0.1208,-0.1295,-0.1392,-0.1476,-0.1585,-0.1643,-0.1726,-0.1755,-0.181,-0.1822,-0.1814,-0.1744,-0.1821,-0.1677,-0.166,-0.1788,-0.1785,-0.1768,-0.1762,-0.1819,-0.1819,-0.1819,-0.1819,0,-0.0872,-0.0934,-0.0992,-0.112,-0.1171,-0.1233,-0.1388,-0.1451,-0.156,-0.1632,-0.1662,-0.1751,-0.1751,-0.178,-0.1791,-0.1739,-0.1706,-0.1664,-0.179,-0.1781,-0.1556,-0.1553,-0.1524,-0.1519,-0.1515,-0.1512,-0.1509,0,-0.0825,-0.0839,-0.0975,-0.1017,-0.1074,-0.1189,-0.1263,-0.1415,-0.147,-0.1602,-0.1612,-0.1664,-0.1699,-0.1607,-0.165,-0.1619,-0.1599,-0.1582,-0.1573,-0.1538,-0.1526,-0.1529,-0.1531,-0.1502,-0.1501,-0.15,-0.1499,0,-0.0741,-0.079,-0.084,-0.0928,-0.1009,-0.1104,-0.1218,-0.1255,-0.1405,-0.1511,-0.1521,-0.1526,-0.1518,-0.1514,-0.1494,-0.1476,-0.1596,-0.1541,-0.1549,-0.154,-0.1512,-0.1505,-0.1512,-0.1486,-0.1488,-0.1489,-0.149,0,-0.0683,-0.0705,-0.0771,-0.0842,-0.0931,-0.0988,-0.1077,-0.1149,-0.1227,-0.1378,-0.1368,-0.1422,-0.1493,-0.1437,-0.1422,-0.1387,-0.1367,-0.1336,-0.1355,-0.137,-0.1316,-0.1259,-0.1133,0,0,0,0,0,-0.0624,-0.0637,-0.0689,-0.0757,-0.0831,-0.0883,-0.1028,-0.1115,-0.126,-0.1225,-0.13,-0.1287,-0.1267,-0.1298,-0.1225,-0.1342,-0.1368,-0.1254,-0.1341,-0.1409,-0.1425,-0.1374,0,0,0,0,0,0,-0.0588,-0.0622,-0.0651,-0.066,-0.068,-0.0761,-0.0846,-0.0951,-0.0955,-0.1094,-0.1085,-0.1182,-0.1174,-0.1258,-0.118,-0.1189,-0.1216,-0.1295,-0.1291,-0.14,-0.1415,-0.1427,-0.1381,0,0,0,0,0]},{"header":{"parameterUnit":"m.s-1","parameterCategory":2,"la1":30.2991,"la2":30.254,"lo1":-89.0895,"lo2":-89.0444,"dy":0.0017,"dx":0.0017,"nx":28,"ny":28,"refTime":"2024-05-27T03:00:00:Z","depth":"4","parameterNumber":3,"parameterNumberName":"V-component_of_CURRENTS"},"data":[0,0,0,0,0,0,0,0,0,0,0,0,0,0,0,0,0,0,0,0,0,0,0,0,0,0,0,0,0,0,0,0,0,0,0,0,0,0,0,0,0,0,0,0,0,0,0,0,0,0,0,0,0,0,0,0,0,0,0.0061,0.0061,0,0.0069,0.0069,0.0069,0.0087,0.0088,0.0088,0.0089,0.0113,0.0114,0.0114,0,0,0,0,0,0,0,0,0,0,0,0,0,0.0029,0.003,0.0061,0.0061,0.0062,0.0069,0.0069,0.0069,0.0087,0.0088,0.0088,0.0089,0.0113,0.0114,0.0114,0,0,0,0,0,0,0,0,0,0,0,0,0,0.004,0.003,0.0061,0.0072,0.0073,0.0069,0.0069,0.0069,0.0087,0.0088,0.0088,0.0089,0.0113,0.0114,0.0114,0.0104,0,0,0.0115,0.0115,0,0,0,0,0,0,0,0,0.004,0.0042,0.007,0.0071,0.0072,0.0078,0.0067,0.0082,0.0087,0.0081,0.0089,0.0089,0.0103,0.0104,0.0104,0.0105,0.0106,0.0115,0.0116,0.0116,0.0116,0,0,0,0,0,0,0,0.0039,0.0041,0.0064,0.007,0.0072,0.0065,0.0067,0.0069,0.0089,0.0082,0.0083,0.0084,0.0104,0.0103,0.0104,0.0107,0.0115,0.0116,0.0116,0.0116,0.0133,0.0133,0,0,0,0,0,0,0.004,0.0041,0.0064,0.0064,0.0058,0.0065,0.0068,0.0075,0.0088,0.0091,0.0084,0.0085,0.0102,0.0104,0.0105,0.011,0.0116,0.0116,0.0116,0.0133,0.0133,0.0133,0,0,0,0,0,0,0.0039,0.0042,0.0063,0.0052,0.0055,0.0065,0.0073,0.0075,0.0077,0.009,0.0093,0.0084,0.0103,0.0105,0.0107,0.011,0.0116,0.0117,0.0132,0.0133,0.0133,0.0109,0,0,0,0,0,0,0.0039,0.0042,0.0047,0.0053,0.0055,0.005,0.0073,0.0075,0.0076,0.0078,0.009,0.0093,0.0103,0.0106,0.0107,0.0111,0.0117,0.0132,0.0133,0.0133,0.0109,0.0108,0.0107,0,0,0,0,0,0.0037,0.0033,0.0048,0.005,0.0063,0.0049,0.0049,0.0059,0.0076,0.0065,0.0082,0.0093,0.011,0.0106,0.0107,0.0112,0.0132,0.0132,0.0133,0.011,0.0108,0.0107,0,0,0,0,0,0,0.0023,0.0035,0.0051,0.0053,0.005,0.0052,0.0045,0.0056,0.0061,0.0066,0.0087,0.009,0.0093,0.0106,0.0101,0.0119,0.0126,0.0127,0.0108,0.0107,0.0106,0.0108,0.0117,0,0,0,0,0,0.0023,0.0025,0.0033,0.0035,0.0032,0.0041,0.0039,0.0043,0.0048,0.0051,0.0063,0.0081,0.0095,0.0103,0.0109,0.0114,0.0142,0.0122,0.0121,0.012,0.0123,0.0182,0.0186,0.0135,0.0135,0.0135,0,0,0.0021,0.0027,0.0031,0.0032,0.0033,0.0016,0.0041,0.003,0.0025,0.0053,0.0051,0.007,0.0094,0.01,0.0105,0.0112,0.0145,0.012,0.0119,0.0123,0.0183,0.0188,0.0193,0.0135,0.0135,0.0135,0,0,-0.0005,0.0019,0.0002,-0.0003,-0.0008,-0.0004,-0.0008,-0.0007,0.0004,0.0,0.0029,0.0055,0.006,0.0091,0.0106,0.0105,0.0133,0.0105,0.0106,0.0162,0.0167,0.0172,0.0194,0.0201,0.0111,0.0111,0.0111,0,-0.001,-0.0024,-0.0007,-0.0032,-0.0036,-0.0015,-0.004,-0.003,-0.0026,-0.001,-0.0006,0.0044,0.0061,0.01,0.01,0.0104,0.0128,0.0107,0.0162,0.0167,0.0172,0.0194,0.0202,0.011,0.011,0.011,0.011,0,-0.0056,-0.0065,-0.0079,-0.0093,-0.0098,-0.0116,-0.0102,-0.0095,-0.0075,-0.0055,-0.0018,0.0017,0.0053,0.0066,0.0079,0.0129,0.0129,0.0148,0.0164,0.0176,0.0198,0.0207,0.0108,0.0109,0.0109,0.0109,0,0,-0.0072,-0.0104,-0.0109,-0.0124,-0.013,-0.014,-0.0137,-0.0124,-0.0106,-0.008,-0.0049,-0.0005,0.0033,0.0054,0.009,0.0142,0.0191,0.0157,0.0161,0.0177,0.0293,0.0264,0.0271,0.0222,0.0224,0.0226,0.0286,0,-0.0113,-0.017,-0.0171,-0.021,-0.0234,-0.0206,-0.0204,-0.0181,-0.0146,-0.0112,-0.004,-0.0008,0.0024,0.0047,0.0106,0.017,0.0217,0.0172,0.0281,0.0284,0.0256,0.0282,0.0232,0.0293,0.0295,0.0296,0.0297,0,-0.016,-0.019,-0.0242,-0.026,-0.0266,-0.0281,-0.0253,-0.0249,-0.0184,-0.0154,-0.0087,-0.0035,0.0045,0.0068,0.0198,0.0167,0.0225,0.0277,0.0282,0.0272,0.0272,0.0285,0.0314,0.0313,0.0311,0.031,0.0309,0,-0.0185,-0.0235,-0.0275,-0.0284,-0.0302,-0.0305,-0.0305,-0.0259,-0.0245,-0.0173,-0.0148,-0.0043,0.0004,0.0109,0.0212,0.0209,0.0349,0.0361,0.039,0.0387,0.0405,0.04,0.0456,0.0456,0.0456,0.0455,0.0455,0,-0.0222,-0.0252,-0.029,-0.0312,-0.0345,-0.0339,-0.0347,-0.0323,-0.0281,-0.026,-0.0171,-0.0121,0.002,0.0116,0.0211,0.0323,0.0353,0.0394,0.0411,0.0389,0.0381,0.041,0.0404,0.0458,0.0457,0.0457,0.0456,0,-0.0237,-0.0266,-0.0316,-0.035,-0.0362,-0.0382,-0.0396,-0.0392,-0.0348,-0.0315,-0.0295,-0.0176,-0.0049,0.0084,0.0247,0.0308,0.0424,0.0455,0.04,0.0412,0.042,0.0412,0.0494,0.0494,0.0494,0.0494,0.0493,0,-0.0248,-0.0277,-0.0345,-0.0378,-0.0397,-0.0427,-0.0445,-0.0428,-0.0417,-0.0343,-0.0323,-0.0202,-0.0112,0.0103,0.0233,0.0405,0.0428,0.0469,0.0468,0.0421,0.043,0.0422,0.0414,0.0493,0.0493,0.0493,0.0493,0,-0.0259,-0.0288,-0.0332,-0.0403,-0.0443,-0.0484,-0.0503,-0.0504,-0.0471,-0.0435,-0.0324,-0.0203,-0.0068,0.0102,0.0227,0.0354,0.0436,0.0467,0.0468,0.0468,0.0421,0.0427,0.042,0.0492,0.0492,0.0492,0.0492,0,-0.0259,-0.0297,-0.0359,-0.0416,-0.0475,-0.0517,-0.0533,-0.0509,-0.0493,-0.0404,-0.0369,-0.0205,-0.0106,0.0074,0.0197,0.0311,0.0339,0.0366,0.0374,0.0376,0.0322,0.0243,0.0282,0,0,0,0,0,-0.0251,-0.0297,-0.0362,-0.0433,-0.0494,-0.0519,-0.0556,-0.0558,-0.053,-0.0455,-0.0407,-0.027,-0.0069,0.003,0.0141,0.017,0.0335,0.0299,0.0364,0.0487,0.0488,0.0442,0,0,0,0,0,0,-0.0249,-0.031,-0.0359,-0.043,-0.0471,-0.0528,-0.0553,-0.0542,-0.0488,-0.0438,-0.0319,-0.0248,-0.0044,-0.0115,0.0151,0.0184,0.0234,0.0402,0.0404,0.0486,0.0487,0.0488,0.0442,0,0,0,0,0]}]]